,,,PA_Meas_PMT16A,,PR_Meas_QMR101_102,,RH_Meas_QMH101,,SR_Meas_QMS101,,TA_Meas_QMH101,,GenWind,,GenWind,
date,time,status,PA,status,PR,status,RH,status,SR,status,TA,status,DirAvg,status,SpdAvg,
2012-07-13, 00:00:04,VALID,1000.68,VALID,0,VALID,95.9883,VALID,0,VALID,22.8232,VALID,36,VALID,0.0304688,
2012-07-13, 00:01:04,VALID,1000.68,VALID,0,VALID,96.0035,VALID,0.104696,VALID,22.8427,VALID,36,VALID,0.451562,
2012-07-13, 00:02:04,VALID,1000.68,VALID,0,VALID,96.0035,VALID,0,VALID,22.8232,VALID,36,VALID,0.594922,
2012-07-13, 00:03:04,VALID,1000.67,VALID,0,VALID,96.0188,VALID,0,VALID,22.802,VALID,36,VALID,0.594531,
2012-07-13, 00:04:04,VALID,1000.69,VALID,0,VALID,96.0417,VALID,0,VALID,22.7647,VALID,36,VALID,0.349609,
2012-07-13, 00:05:04,VALID,1000.69,VALID,0,VALID,96.0645,VALID,0,VALID,22.7045,VALID,36,VALID,0,
2012-07-13, 00:06:04,VALID,1000.7,VALID,0,VALID,96.0188,VALID,0,VALID,22.7045,VALID,36,VALID,0.116016,
2012-07-13, 00:07:04,VALID,1000.65,VALID,0,VALID,96.0188,VALID,0,VALID,22.7257,VALID,36,VALID,0.398047,
2012-07-13, 00:08:04,VALID,1000.66,VALID,0,VALID,96.0111,VALID,0,VALID,22.7045,VALID,36,VALID,0.259375,
2012-07-13, 00:09:04,VALID,1000.66,VALID,0,VALID,95.9959,VALID,0,VALID,22.7647,VALID,36,VALID,0.232422,
2012-07-13, 00:10:04,VALID,1000.66,VALID,0,VALID,95.9806,VALID,0,VALID,22.7647,VALID,36,VALID,0,
2012-07-13, 00:11:04,VALID,1000.64,VALID,0,VALID,95.9959,VALID,0,VALID,22.7435,VALID,36,VALID,0,
2012-07-13, 00:12:04,VALID,1000.65,VALID,0,VALID,95.9806,VALID,0,VALID,22.7647,VALID,36,VALID,0,
2012-07-13, 00:13:04,VALID,1000.63,VALID,0,VALID,95.9959,VALID,0,VALID,22.724,VALID,36,VALID,0,
2012-07-13, 00:14:04,VALID,1000.63,VALID,0,VALID,96.0035,VALID,0,VALID,22.7257,VALID,36,VALID,0,
2012-07-13, 00:15:04,VALID,1000.6,VALID,0,VALID,95.9959,VALID,0,VALID,22.7257,VALID,36,VALID,0,
2012-07-13, 00:16:04,VALID,1000.59,VALID,0,VALID,95.9883,VALID,0,VALID,22.724,VALID,36,VALID,0,
2012-07-13, 00:17:04,VALID,1000.55,VALID,0,VALID,95.9577,VALID,0,VALID,22.724,VALID,36,VALID,0,
2012-07-13, 00:18:04,VALID,1000.54,VALID,0,VALID,95.973,VALID,0,VALID,22.724,VALID,36,VALID,0,
2012-07-13, 00:19:04,VALID,1000.54,VALID,0,VALID,95.9806,VALID,0,VALID,22.7257,VALID,36,VALID,0,
2012-07-13, 00:20:04,VALID,1000.49,VALID,0,VALID,95.9883,VALID,0,VALID,22.7062,VALID,36,VALID,0,
2012-07-13, 00:21:04,VALID,1000.51,VALID,0,VALID,95.9654,VALID,0,VALID,22.7062,VALID,36,VALID,0,
2012-07-13, 00:22:05,VALID,1000.49,VALID,0,VALID,95.9654,VALID,0,VALID,22.7062,VALID,36,VALID,0.112109,
2012-07-13, 00:23:05,VALID,1000.49,VALID,0,VALID,95.973,VALID,0,VALID,22.7062,VALID,36,VALID,0.277734,
2012-07-13, 00:24:05,VALID,1000.45,VALID,0,VALID,95.9501,VALID,0,VALID,22.7062,VALID,36,VALID,0.173828,
2012-07-13, 00:25:04,VALID,1000.45,VALID,0,VALID,95.9425,VALID,0,VALID,22.7062,VALID,36,VALID,0,
2012-07-13, 00:26:05,VALID,1000.42,VALID,0,VALID,95.9654,VALID,0,VALID,22.7062,VALID,36,VALID,0,
2012-07-13, 00:27:05,VALID,1000.42,VALID,0,VALID,95.9577,VALID,0,VALID,22.7257,VALID,36,VALID,0,
2012-07-13, 00:28:05,VALID,1000.41,VALID,0,VALID,95.912,VALID,0,VALID,22.7647,VALID,36,VALID,0,
2012-07-13, 00:29:05,VALID,1000.41,VALID,0,VALID,95.9196,VALID,0,VALID,22.763,VALID,36,VALID,0,
2012-07-13, 00:30:05,VALID,1000.44,VALID,0,VALID,95.8891,VALID,0,VALID,22.7825,VALID,36,VALID,0.455078,
2012-07-13, 00:31:05,VALID,1000.41,VALID,0,VALID,95.912,VALID,0,VALID,22.7825,VALID,53,VALID,0.644141,
2012-07-13, 00:32:05,VALID,1000.41,VALID,0,VALID,95.9043,VALID,0,VALID,22.7825,VALID,89,VALID,0.741797,
2012-07-13, 00:33:05,VALID,1000.39,VALID,0,VALID,95.8967,VALID,0,VALID,22.8232,VALID,89,VALID,0.699219,
2012-07-13, 00:34:05,VALID,1000.39,VALID,0,VALID,95.912,VALID,0.104696,VALID,22.802,VALID,89,VALID,0.671094,
2012-07-13, 00:35:05,VALID,1000.39,VALID,0,VALID,95.8814,VALID,0,VALID,22.8232,VALID,89,VALID,0.521094,
2012-07-13, 00:36:05,VALID,1000.38,VALID,0,VALID,95.9425,VALID,0,VALID,22.7842,VALID,89,VALID,0.485156,
2012-07-13, 00:37:05,VALID,1000.34,VALID,0,VALID,95.9501,VALID,0,VALID,22.7647,VALID,89,VALID,0.416016,
2012-07-13, 00:38:05,VALID,1000.34,VALID,0,VALID,95.9654,VALID,0,VALID,22.7257,VALID,89,VALID,0.396094,
2012-07-13, 00:39:05,VALID,1000.32,VALID,0,VALID,95.9577,VALID,0,VALID,22.7062,VALID,89,VALID,0.300391,
2012-07-13, 00:40:05,VALID,1000.31,VALID,0,VALID,95.9501,VALID,0,VALID,22.685,VALID,89,VALID,0.348828,
2012-07-13, 00:41:05,VALID,1000.31,VALID,0,VALID,95.9425,VALID,0,VALID,22.7257,VALID,89,VALID,0.415234,
2012-07-13, 00:42:05,VALID,1000.3,VALID,0,VALID,95.9196,VALID,0,VALID,22.724,VALID,89,VALID,0.354688,
2012-07-13, 00:43:05,VALID,1000.31,VALID,0,VALID,95.9043,VALID,0,VALID,22.7257,VALID,89,VALID,0.495313,
2012-07-13, 00:44:05,VALID,1000.29,VALID,0,VALID,95.912,VALID,0,VALID,22.7435,VALID,89,VALID,0.630469,
2012-07-13, 00:45:05,VALID,1000.27,VALID,0,VALID,95.912,VALID,0,VALID,22.7435,VALID,89,VALID,0.654688,
2012-07-13, 00:46:05,VALID,1000.26,VALID,0,VALID,95.9043,VALID,0,VALID,22.7435,VALID,89,VALID,0.733203,
2012-07-13, 00:47:05,VALID,1000.25,VALID,0,VALID,95.9043,VALID,0,VALID,22.7842,VALID,80,VALID,0.735547,
2012-07-13, 00:48:05,VALID,1000.23,VALID,0,VALID,95.9272,VALID,0.104696,VALID,22.7825,VALID,78,VALID,0.728516,
2012-07-13, 00:49:05,VALID,1000.23,VALID,0,VALID,95.9348,VALID,0,VALID,22.7842,VALID,78,VALID,0.622266,
2012-07-13, 00:50:05,VALID,1000.21,VALID,0,VALID,95.9959,VALID,0,VALID,22.7257,VALID,78,VALID,0.54375,
2012-07-13, 00:51:05,VALID,1000.22,VALID,0,VALID,96.0264,VALID,0,VALID,22.6884,VALID,78,VALID,0.449609,
2012-07-13, 00:52:05,VALID,1000.22,VALID,0,VALID,96.0264,VALID,0,VALID,22.6282,VALID,78,VALID,0.408984,
2012-07-13, 00:53:05,VALID,1000.23,VALID,0,VALID,96.0264,VALID,0,VALID,22.6104,VALID,78,VALID,0.3625,
2012-07-13, 00:54:05,VALID,1000.22,VALID,0,VALID,96.034,VALID,0,VALID,22.6104,VALID,78,VALID,0.378125,
2012-07-13, 00:55:05,VALID,1000.21,VALID,0,VALID,96.0188,VALID,0,VALID,22.5909,VALID,78,VALID,0.332031,
2012-07-13, 00:56:05,VALID,1000.22,VALID,0,VALID,95.9883,VALID,0,VALID,22.6299,VALID,78,VALID,0.687891,
2012-07-13, 00:57:05,VALID,1000.17,VALID,0,VALID,95.9501,VALID,0,VALID,22.6477,VALID,71,VALID,0.831641,
2012-07-13, 00:58:05,VALID,1000.17,VALID,0,VALID,95.9196,VALID,0,VALID,22.6884,VALID,58,VALID,0.880469,
2012-07-13, 00:59:05,VALID,1000.17,VALID,0,VALID,95.9577,VALID,0,VALID,22.6884,VALID,47,VALID,0.926172,
2012-07-13, 01:00:05,VALID,1000.16,VALID,0,VALID,96.0569,VALID,0,VALID,22.5714,VALID,31,VALID,0.946094,
2012-07-13, 01:01:05,VALID,1000.17,VALID,0,VALID,96.0493,VALID,0,VALID,22.4916,VALID,19,VALID,1.15781,
2012-07-13, 01:02:05,VALID,1000.17,VALID,0,VALID,96.0111,VALID,0,VALID,22.5519,VALID,6,VALID,0.95,
2012-07-13, 01:03:05,VALID,1000.16,VALID,0,VALID,95.9501,VALID,0,VALID,22.6104,VALID,6,VALID,0.664844,
2012-07-13, 01:04:05,VALID,1000.15,VALID,0,VALID,95.9196,VALID,0,VALID,22.6494,VALID,6,VALID,0.723828,
2012-07-13, 01:05:05,VALID,1000.12,VALID,0,VALID,95.9348,VALID,0,VALID,22.6477,VALID,9,VALID,0.567578,
2012-07-13, 01:06:05,VALID,1000.14,VALID,0,VALID,95.9959,VALID,0.104696,VALID,22.6282,VALID,22,VALID,0.697656,
2012-07-13, 01:07:05,VALID,1000.1,VALID,0,VALID,95.9883,VALID,0,VALID,22.6087,VALID,22,VALID,0.426172,
2012-07-13, 01:08:05,VALID,1000.09,VALID,0,VALID,95.9883,VALID,0,VALID,22.5679,VALID,22,VALID,0,
2012-07-13, 01:09:05,VALID,1000.05,VALID,0,VALID,96.0111,VALID,0.104696,VALID,22.5484,VALID,22,VALID,0,
2012-07-13, 01:10:05,VALID,1000.05,VALID,0,VALID,95.9883,VALID,0,VALID,22.5696,VALID,22,VALID,0,
2012-07-13, 01:11:05,VALID,1000.02,VALID,0,VALID,95.9577,VALID,0,VALID,22.5892,VALID,22,VALID,0,
2012-07-13, 01:12:05,VALID,1000.03,VALID,0,VALID,95.9577,VALID,0,VALID,22.6087,VALID,22,VALID,0,
2012-07-13, 01:13:05,VALID,1000.02,VALID,0,VALID,95.9806,VALID,0,VALID,22.5874,VALID,22,VALID,0,
2012-07-13, 01:14:05,VALID,1000.01,VALID,0,VALID,95.9501,VALID,0,VALID,22.6069,VALID,22,VALID,0,
2012-07-13, 01:15:05,VALID,999.999,VALID,0,VALID,95.9348,VALID,0,VALID,22.6477,VALID,22,VALID,0,
2012-07-13, 01:16:05,VALID,999.983,VALID,0,VALID,95.9196,VALID,0,VALID,22.6477,VALID,22,VALID,0,
2012-07-13, 01:17:05,VALID,999.984,VALID,0,VALID,95.9348,VALID,0,VALID,22.6672,VALID,22,VALID,0,
2012-07-13, 01:18:05,VALID,999.975,VALID,0,VALID,95.9196,VALID,0,VALID,22.6867,VALID,22,VALID,0,
2012-07-13, 01:19:05,VALID,999.972,VALID,0,VALID,95.8967,VALID,0,VALID,22.685,VALID,22,VALID,0,
2012-07-13, 01:20:05,VALID,999.96,VALID,0,VALID,95.8891,VALID,0,VALID,22.685,VALID,22,VALID,0,
2012-07-13, 01:21:05,VALID,999.964,VALID,0,VALID,95.8967,VALID,0,VALID,22.7062,VALID,22,VALID,0,
2012-07-13, 01:22:05,VALID,999.972,VALID,0,VALID,95.9043,VALID,0,VALID,22.7045,VALID,22,VALID,0,
2012-07-13, 01:23:05,VALID,999.953,VALID,0,VALID,95.9272,VALID,0,VALID,22.7045,VALID,22,VALID,0,
2012-07-13, 01:24:05,VALID,999.936,VALID,0,VALID,95.9425,VALID,0,VALID,22.7257,VALID,22,VALID,0,
2012-07-13, 01:25:05,VALID,999.953,VALID,0,VALID,95.9348,VALID,0,VALID,22.7257,VALID,50,VALID,0,
2012-07-13, 01:26:05,VALID,999.905,VALID,0,VALID,95.9425,VALID,0,VALID,22.685,VALID,50,VALID,0,
2012-07-13, 01:27:05,VALID,999.921,VALID,0,VALID,95.973,VALID,0,VALID,22.685,VALID,50,VALID,0,
2012-07-13, 01:28:05,VALID,999.937,VALID,0,VALID,95.9806,VALID,0,VALID,22.6655,VALID,50,VALID,0,
2012-07-13, 01:29:05,VALID,999.901,VALID,0,VALID,95.9883,VALID,0,VALID,22.6672,VALID,50,VALID,0,
2012-07-13, 01:30:05,VALID,999.875,VALID,0,VALID,95.973,VALID,0,VALID,22.6264,VALID,50,VALID,0,
2012-07-13, 01:31:05,VALID,999.846,VALID,0,VALID,96.0188,VALID,0,VALID,22.6282,VALID,50,VALID,0,
2012-07-13, 01:32:05,VALID,999.835,VALID,0,VALID,96.0188,VALID,0,VALID,22.5874,VALID,50,VALID,0,
2012-07-13, 01:33:05,VALID,999.824,VALID,0,VALID,95.9959,VALID,0,VALID,22.6069,VALID,50,VALID,0,
2012-07-13, 01:34:05,VALID,999.795,VALID,0,VALID,96.0035,VALID,0,VALID,22.6087,VALID,50,VALID,0,
2012-07-13, 01:35:05,VALID,999.795,VALID,0,VALID,96.0188,VALID,0,VALID,22.6087,VALID,50,VALID,0,
2012-07-13, 01:36:05,VALID,999.784,VALID,0,VALID,95.9959,VALID,0,VALID,22.6069,VALID,50,VALID,0,
2012-07-13, 01:37:05,VALID,999.773,VALID,0,VALID,95.973,VALID,0,VALID,22.6477,VALID,50,VALID,0,
2012-07-13, 01:38:05,VALID,999.781,VALID,0,VALID,95.9959,VALID,0,VALID,22.6477,VALID,50,VALID,0,
2012-07-13, 01:39:05,VALID,999.799,VALID,0,VALID,96.0111,VALID,0,VALID,22.6282,VALID,50,VALID,0,
2012-07-13, 01:40:05,VALID,999.792,VALID,0,VALID,96.0111,VALID,0,VALID,22.6069,VALID,50,VALID,0,
2012-07-13, 01:41:05,VALID,999.765,VALID,0,VALID,95.9883,VALID,0,VALID,22.5874,VALID,50,VALID,0,
2012-07-13, 01:42:05,VALID,999.766,VALID,0,VALID,96.0111,VALID,0,VALID,22.5874,VALID,50,VALID,0,
2012-07-13, 01:43:05,VALID,999.76,VALID,0,VALID,96.0111,VALID,0,VALID,22.5892,VALID,50,VALID,0.282813,
2012-07-13, 01:44:05,VALID,999.784,VALID,0,VALID,96.0188,VALID,0,VALID,22.5679,VALID,77,VALID,0.775781,
2012-07-13, 01:45:05,VALID,999.749,VALID,0,VALID,95.9959,VALID,0,VALID,22.6087,VALID,84,VALID,1.04141,
2012-07-13, 01:46:05,VALID,999.8,VALID,0,VALID,95.9959,VALID,0,VALID,22.6087,VALID,93,VALID,1.01602,
2012-07-13, 01:47:05,VALID,999.794,VALID,0,VALID,96.0188,VALID,0,VALID,22.5696,VALID,98,VALID,0.916797,
2012-07-13, 01:48:05,VALID,999.799,VALID,0,VALID,96.034,VALID,0,VALID,22.5696,VALID,98,VALID,0.753516,
2012-07-13, 01:49:05,VALID,999.816,VALID,0,VALID,96.0417,VALID,0,VALID,22.5289,VALID,98,VALID,0.622656,
2012-07-13, 01:50:05,VALID,999.796,VALID,0,VALID,96.034,VALID,0,VALID,22.5501,VALID,98,VALID,0.401953,
2012-07-13, 01:51:05,VALID,999.801,VALID,0,VALID,96.0264,VALID,0,VALID,22.5501,VALID,98,VALID,0.454297,
2012-07-13, 01:52:05,VALID,999.801,VALID,0,VALID,96.0035,VALID,0,VALID,22.5289,VALID,98,VALID,0.347266,
2012-07-13, 01:53:05,VALID,999.786,VALID,0,VALID,96.0264,VALID,0,VALID,22.5289,VALID,98,VALID,0.397656,
2012-07-13, 01:54:05,VALID,999.8,VALID,0,VALID,96.0264,VALID,0,VALID,22.5111,VALID,97,VALID,0.557813,
2012-07-13, 01:55:05,VALID,999.795,VALID,0,VALID,96.0111,VALID,0,VALID,22.4899,VALID,30,VALID,0.66875,
2012-07-13, 01:56:05,VALID,999.81,VALID,0,VALID,95.9959,VALID,0,VALID,22.5306,VALID,23,VALID,0.600781,
2012-07-13, 01:57:05,VALID,999.809,VALID,0,VALID,95.9654,VALID,0,VALID,22.5696,VALID,355,VALID,0.635938,
2012-07-13, 01:58:05,VALID,999.793,VALID,0,VALID,95.9501,VALID,0,VALID,22.5892,VALID,353,VALID,0.608984,
2012-07-13, 01:59:05,VALID,999.786,VALID,0,VALID,95.9577,VALID,0,VALID,22.6087,VALID,353,VALID,0.452344,
2012-07-13, 02:00:05,VALID,999.775,VALID,0,VALID,95.9501,VALID,0,VALID,22.6087,VALID,353,VALID,0.310937,
2012-07-13, 02:01:05,VALID,999.777,VALID,0,VALID,95.9577,VALID,0,VALID,22.6087,VALID,353,VALID,0.255469,
2012-07-13, 02:02:05,VALID,999.769,VALID,0,VALID,95.9654,VALID,0,VALID,22.5874,VALID,353,VALID,0.479297,
2012-07-13, 02:03:05,VALID,999.772,VALID,0,VALID,95.9806,VALID,0,VALID,22.5892,VALID,353,VALID,0.287109,
2012-07-13, 02:04:05,VALID,999.782,VALID,0,VALID,95.9959,VALID,0,VALID,22.5892,VALID,353,VALID,0.48125,
2012-07-13, 02:05:05,VALID,999.792,VALID,0,VALID,95.9806,VALID,0,VALID,22.5696,VALID,353,VALID,0.431641,
2012-07-13, 02:06:05,VALID,999.825,VALID,0,VALID,95.9883,VALID,0,VALID,22.5696,VALID,353,VALID,0.357812,
2012-07-13, 02:07:05,VALID,999.829,VALID,0,VALID,95.9654,VALID,0,VALID,22.5501,VALID,353,VALID,0.232422,
2012-07-13, 02:08:05,VALID,999.812,VALID,0,VALID,95.9883,VALID,0,VALID,22.5111,VALID,353,VALID,0.289063,
2012-07-13, 02:09:05,VALID,999.817,VALID,0,VALID,95.9654,VALID,0,VALID,22.5306,VALID,353,VALID,0.330469,
2012-07-13, 02:10:05,VALID,999.798,VALID,0,VALID,95.9806,VALID,0,VALID,22.5501,VALID,353,VALID,0.411328,
2012-07-13, 02:11:05,VALID,999.777,VALID,0,VALID,95.973,VALID,0,VALID,22.5306,VALID,353,VALID,0.456641,
2012-07-13, 02:12:05,VALID,999.812,VALID,0,VALID,95.9959,VALID,0,VALID,22.5306,VALID,353,VALID,0.455859,
2012-07-13, 02:13:05,VALID,999.79,VALID,0,VALID,95.9959,VALID,0,VALID,22.4704,VALID,356,VALID,0.749609,
2012-07-13, 02:14:05,VALID,999.764,VALID,0,VALID,96.0417,VALID,0,VALID,22.4314,VALID,358,VALID,0.721094,
2012-07-13, 02:15:05,VALID,999.749,VALID,0,VALID,96.0569,VALID,0,VALID,22.3941,VALID,358,VALID,0.790234,
2012-07-13, 02:16:05,VALID,999.738,VALID,0,VALID,96.0188,VALID,0,VALID,22.4331,VALID,358,VALID,0.878125,
2012-07-13, 02:17:05,VALID,999.759,VALID,0,VALID,95.9425,VALID,0,VALID,22.4704,VALID,358,VALID,0.738672,
2012-07-13, 02:18:05,VALID,999.723,VALID,0,VALID,95.9577,VALID,0,VALID,22.4899,VALID,358,VALID,0.747656,
2012-07-13, 02:19:05,VALID,999.741,VALID,0,VALID,95.9654,VALID,0,VALID,22.5094,VALID,358,VALID,0.707031,
2012-07-13, 02:20:05,VALID,999.736,VALID,0,VALID,95.9348,VALID,0,VALID,22.5111,VALID,358,VALID,0.825,
2012-07-13, 02:21:05,VALID,999.726,VALID,0,VALID,95.9425,VALID,0,VALID,22.5306,VALID,22,VALID,0.829687,
2012-07-13, 02:22:05,VALID,999.741,VALID,0,VALID,95.9654,VALID,0,VALID,22.5306,VALID,22,VALID,0.837891,
2012-07-13, 02:23:05,VALID,999.688,VALID,0,VALID,95.9654,VALID,0,VALID,22.5306,VALID,28,VALID,0.956641,
2012-07-13, 02:24:05,VALID,999.706,VALID,0,VALID,96.0111,VALID,0,VALID,22.5111,VALID,30,VALID,0.973047,
2012-07-13, 02:25:05,VALID,999.704,VALID,0,VALID,96.0111,VALID,0,VALID,22.5111,VALID,45,VALID,0.763281,
2012-07-13, 02:26:05,VALID,999.702,VALID,0,VALID,95.9883,VALID,0,VALID,22.5519,VALID,45,VALID,0.676562,
2012-07-13, 02:27:05,VALID,999.705,VALID,0,VALID,95.9959,VALID,0,VALID,22.5519,VALID,45,VALID,0.509766,
2012-07-13, 02:28:05,VALID,999.655,VALID,0,VALID,96.0111,VALID,0,VALID,22.5501,VALID,45,VALID,0.567578,
2012-07-13, 02:29:05,VALID,999.636,VALID,0,VALID,95.9959,VALID,0,VALID,22.5501,VALID,45,VALID,0.524609,
2012-07-13, 02:30:05,VALID,999.618,VALID,0,VALID,96.0035,VALID,0,VALID,22.5501,VALID,45,VALID,0.516016,
2012-07-13, 02:31:05,VALID,999.617,VALID,0,VALID,96.034,VALID,0,VALID,22.5519,VALID,45,VALID,0.661719,
2012-07-13, 02:32:05,VALID,999.594,VALID,0,VALID,96.0264,VALID,0,VALID,22.5306,VALID,45,VALID,0.738672,
2012-07-13, 02:33:05,VALID,999.578,VALID,0,VALID,96.0417,VALID,0,VALID,22.5111,VALID,45,VALID,1.00547,
2012-07-13, 02:34:05,VALID,999.559,VALID,0,VALID,96.0569,VALID,0,VALID,22.4916,VALID,45,VALID,1.27578,
2012-07-13, 02:35:05,VALID,999.523,VALID,0,VALID,96.0417,VALID,0,VALID,22.4899,VALID,45,VALID,1.20938,
2012-07-13, 02:36:05,VALID,999.538,VALID,0,VALID,96.0569,VALID,0.104696,VALID,22.4704,VALID,45,VALID,1.06172,
2012-07-13, 02:37:05,VALID,999.5,VALID,0,VALID,96.0645,VALID,0.104696,VALID,22.4916,VALID,45,VALID,1.05039,
2012-07-13, 02:38:05,VALID,999.492,VALID,0,VALID,96.0493,VALID,0.104696,VALID,22.4704,VALID,45,VALID,0.998438,
2012-07-13, 02:39:05,VALID,999.487,VALID,0,VALID,96.0722,VALID,0.104696,VALID,22.4721,VALID,45,VALID,0.810547,
2012-07-13, 02:40:05,VALID,999.501,VALID,0,VALID,96.0722,VALID,0.104696,VALID,22.4509,VALID,45,VALID,0.627344,
2012-07-13, 02:41:05,VALID,999.488,VALID,0,VALID,96.0645,VALID,0,VALID,22.4509,VALID,45,VALID,0.509375,
2012-07-13, 02:42:05,VALID,999.5,VALID,0,VALID,96.0569,VALID,0.104696,VALID,22.4509,VALID,45,VALID,0.349219,
2012-07-13, 02:43:05,VALID,999.485,VALID,0,VALID,96.0722,VALID,0,VALID,22.4704,VALID,45,VALID,0.324219,
2012-07-13, 02:44:05,VALID,999.484,VALID,0,VALID,96.034,VALID,0,VALID,22.4704,VALID,45,VALID,0.101172,
2012-07-13, 02:45:05,VALID,999.479,VALID,0,VALID,96.0493,VALID,0.104696,VALID,22.4899,VALID,45,VALID,0.132813,
2012-07-13, 02:46:05,VALID,999.493,VALID,0,VALID,96.0264,VALID,0,VALID,22.5111,VALID,45,VALID,0.1875,
2012-07-13, 02:47:05,VALID,999.475,VALID,0,VALID,96.0417,VALID,0,VALID,22.5111,VALID,45,VALID,0.250781,
2012-07-13, 02:48:05,VALID,999.493,VALID,0,VALID,96.0188,VALID,0,VALID,22.4899,VALID,45,VALID,0.289063,
2012-07-13, 02:49:05,VALID,999.508,VALID,0,VALID,96.0264,VALID,0.104696,VALID,22.5094,VALID,45,VALID,0.325,
2012-07-13, 02:50:05,VALID,999.526,VALID,0,VALID,96.0111,VALID,0,VALID,22.5306,VALID,45,VALID,0.457031,
2012-07-13, 02:51:05,VALID,999.52,VALID,0,VALID,96.0111,VALID,0,VALID,22.5306,VALID,45,VALID,0.550781,
2012-07-13, 02:52:05,VALID,999.537,VALID,0,VALID,96.034,VALID,0,VALID,22.5501,VALID,45,VALID,0.592969,
2012-07-13, 02:53:05,VALID,999.569,VALID,0,VALID,95.9806,VALID,0,VALID,22.5696,VALID,45,VALID,0.642187,
2012-07-13, 02:54:05,VALID,999.581,VALID,0,VALID,96.0111,VALID,0,VALID,22.5892,VALID,45,VALID,0.661719,
2012-07-13, 02:55:05,VALID,999.579,VALID,0,VALID,95.9806,VALID,0,VALID,22.5892,VALID,45,VALID,0.596875,
2012-07-13, 02:56:05,VALID,999.561,VALID,0,VALID,95.9959,VALID,0,VALID,22.6087,VALID,45,VALID,0.614453,
2012-07-13, 02:57:05,VALID,999.589,VALID,0,VALID,95.9806,VALID,0,VALID,22.6477,VALID,45,VALID,0.479688,
2012-07-13, 02:58:05,VALID,999.569,VALID,0,VALID,95.9501,VALID,0,VALID,22.6672,VALID,45,VALID,0.442969,
2012-07-13, 02:59:05,VALID,999.539,VALID,0,VALID,95.9501,VALID,0,VALID,22.7062,VALID,45,VALID,0.285937,
2012-07-13, 03:00:05,VALID,999.546,VALID,0,VALID,95.9501,VALID,0,VALID,22.7274,VALID,45,VALID,0.357031,
2012-07-13, 03:01:05,VALID,999.551,VALID,0,VALID,95.9577,VALID,0,VALID,22.7664,VALID,45,VALID,0.270703,
2012-07-13, 03:02:05,VALID,999.536,VALID,0,VALID,95.9577,VALID,0,VALID,22.7647,VALID,45,VALID,0.359375,
2012-07-13, 03:03:05,VALID,999.56,VALID,0,VALID,95.9425,VALID,0,VALID,22.7842,VALID,45,VALID,0.466797,
2012-07-13, 03:04:05,VALID,999.576,VALID,0,VALID,95.9501,VALID,0,VALID,22.7842,VALID,131,VALID,0.685156,
2012-07-13, 03:05:05,VALID,999.621,VALID,0,VALID,95.9959,VALID,0,VALID,22.8037,VALID,144,VALID,0.707422,
2012-07-13, 03:06:05,VALID,999.632,VALID,0,VALID,96.0111,VALID,0,VALID,22.8037,VALID,144,VALID,0.839844,
2012-07-13, 03:07:05,VALID,999.671,VALID,0,VALID,96.0417,VALID,0,VALID,22.8445,VALID,138,VALID,0.958203,
2012-07-13, 03:08:04,VALID,999.69,VALID,0,VALID,96.0645,VALID,0,VALID,22.864,VALID,138,VALID,1.1918,
2012-07-13, 03:09:04,VALID,999.695,VALID,0,VALID,96.0798,VALID,0,VALID,22.8818,VALID,138,VALID,0.914063,
2012-07-13, 03:10:04,VALID,999.7,VALID,0,VALID,96.0798,VALID,0,VALID,22.8818,VALID,138,VALID,0.635938,
2012-07-13, 03:11:04,VALID,999.703,VALID,0,VALID,96.0722,VALID,0,VALID,22.9013,VALID,138,VALID,0.684766,
2012-07-13, 03:12:04,VALID,999.709,VALID,0,VALID,96.0493,VALID,0,VALID,22.9208,VALID,138,VALID,0.536328,
2012-07-13, 03:13:04,VALID,999.72,VALID,0,VALID,96.034,VALID,0,VALID,22.942,VALID,138,VALID,0.403125,
2012-07-13, 03:14:04,VALID,999.681,VALID,0,VALID,96.034,VALID,0,VALID,22.9598,VALID,138,VALID,0.538672,
2012-07-13, 03:15:04,VALID,999.671,VALID,0,VALID,95.9959,VALID,0,VALID,22.9988,VALID,138,VALID,0.578125,
2012-07-13, 03:16:04,VALID,999.667,VALID,0,VALID,95.9348,VALID,0,VALID,23.0378,VALID,138,VALID,0.513281,
2012-07-13, 03:17:04,VALID,999.663,VALID,0,VALID,95.9043,VALID,0,VALID,23.0378,VALID,138,VALID,0.427734,
2012-07-13, 03:18:04,VALID,999.676,VALID,0,VALID,95.8433,VALID,0,VALID,23.0378,VALID,138,VALID,0.2375,
2012-07-13, 03:19:04,VALID,999.683,VALID,0,VALID,95.7899,VALID,0,VALID,23.0378,VALID,138,VALID,0.267188,
2012-07-13, 03:20:04,VALID,999.664,VALID,0,VALID,95.7212,VALID,0.104696,VALID,23.0556,VALID,155,VALID,0.590625,
2012-07-13, 03:21:04,VALID,999.701,VALID,0,VALID,95.6449,VALID,0,VALID,23.0751,VALID,155,VALID,0.740625,
2012-07-13, 03:22:04,VALID,999.687,VALID,0,VALID,95.5228,VALID,0,VALID,23.0964,VALID,155,VALID,0.937109,
2012-07-13, 03:23:04,VALID,999.693,VALID,0,VALID,95.3092,VALID,0,VALID,23.1141,VALID,155,VALID,1.01797,
2012-07-13, 03:24:04,VALID,999.653,VALID,0,VALID,95.0727,VALID,0,VALID,23.1549,VALID,155,VALID,0.760938,
2012-07-13, 03:25:04,VALID,999.653,VALID,0,VALID,94.8667,VALID,0,VALID,23.1726,VALID,155,VALID,0.690234,
2012-07-13, 03:26:04,VALID,999.624,VALID,0,VALID,94.6531,VALID,0.104696,VALID,23.1939,VALID,155,VALID,0.419922,
2012-07-13, 03:27:04,VALID,999.599,VALID,0,VALID,94.4928,VALID,0,VALID,23.1726,VALID,155,VALID,0.28125,
2012-07-13, 03:28:04,VALID,999.597,VALID,0,VALID,94.3631,VALID,0,VALID,23.1726,VALID,155,VALID,0.234766,
2012-07-13, 03:29:04,VALID,999.565,VALID,0,VALID,94.3555,VALID,0,VALID,23.1939,VALID,155,VALID,0.00507812,
2012-07-13, 03:30:04,VALID,999.583,VALID,0,VALID,94.3708,VALID,0.104696,VALID,23.1744,VALID,155,VALID,0,
2012-07-13, 03:31:04,VALID,999.582,VALID,0,VALID,94.4165,VALID,0,VALID,23.1744,VALID,155,VALID,0,
2012-07-13, 03:32:04,VALID,999.568,VALID,0,VALID,94.5234,VALID,0,VALID,23.1336,VALID,155,VALID,0,
2012-07-13, 03:33:04,VALID,999.559,VALID,0,VALID,94.5615,VALID,0.104696,VALID,23.1354,VALID,155,VALID,0,
2012-07-13, 03:34:04,VALID,999.577,VALID,0,VALID,94.6531,VALID,0,VALID,23.1141,VALID,155,VALID,0,
2012-07-13, 03:35:04,VALID,999.565,VALID,0,VALID,94.7141,VALID,0,VALID,23.1176,VALID,155,VALID,0,
2012-07-13, 03:36:04,VALID,999.571,VALID,0,VALID,94.7828,VALID,0,VALID,23.0981,VALID,155,VALID,0.192578,
2012-07-13, 03:37:04,VALID,999.533,VALID,0,VALID,94.8057,VALID,0,VALID,23.0769,VALID,155,VALID,0.504687,
2012-07-13, 03:38:04,VALID,999.554,VALID,0,VALID,94.8133,VALID,0,VALID,23.0573,VALID,90,VALID,0.664453,
2012-07-13, 03:39:04,VALID,999.551,VALID,0,VALID,94.7904,VALID,0,VALID,23.0378,VALID,36,VALID,1.03281,
2012-07-13, 03:40:04,VALID,999.55,VALID,0,VALID,94.8362,VALID,0,VALID,23.0201,VALID,28,VALID,1.11563,
2012-07-13, 03:41:04,VALID,999.542,VALID,0,VALID,94.9277,VALID,0,VALID,22.9811,VALID,24,VALID,1.11758,
2012-07-13, 03:42:04,VALID,999.539,VALID,0,VALID,95.0422,VALID,0,VALID,22.9615,VALID,24,VALID,0.946094,
2012-07-13, 03:43:04,VALID,999.567,VALID,0,VALID,95.1643,VALID,0,VALID,22.942,VALID,24,VALID,0.802344,
2012-07-13, 03:44:04,VALID,999.557,VALID,0,VALID,95.2253,VALID,0,VALID,22.9208,VALID,24,VALID,0.526953,
2012-07-13, 03:45:04,VALID,999.561,VALID,0,VALID,95.2787,VALID,0,VALID,22.9208,VALID,24,VALID,0.507813,
2012-07-13, 03:46:04,VALID,999.572,VALID,0,VALID,95.3397,VALID,0,VALID,22.942,VALID,24,VALID,0.438672,
2012-07-13, 03:47:04,VALID,999.588,VALID,0,VALID,95.3474,VALID,0,VALID,22.9615,VALID,24,VALID,0.492188,
2012-07-13, 03:48:04,VALID,999.573,VALID,0,VALID,95.355,VALID,0,VALID,22.9208,VALID,24,VALID,0.480469,